Ozark, AL

11:48 PM CDT on July 25, 2017 (GMT -0500)
Cairns Army Air Field

Weather History for KOZR - March, 2013

Change the Weather History Date:

Saturday, March 30, 2013

  Actual Average Record
Temperature  
Mean Temperature 60 °F -  
Max Temperature 75 °F 71 °F 84 °F (1998)
Min Temperature 45 °F 48 °F 39 °F (2009)
Degree Days  
Heating Degree Days 5    
Growing Degree Days 10 (Base 50)    
Moisture  
Dew Point 50 °F    
Average Humidity 77    
Maximum Humidity 100    
Minimum Humidity 42    
Precipitation  
Precipitation 0.00 in - - ()
Sea Level Pressure  
Sea Level Pressure 30.17 in    
Wind  
Wind Speed 3 mph (South)    
Max Wind Speed 15 mph    
Max Gust Speed 21 mph    
Visibility 8 miles    
Events Fog    
Averages and records for this station are not official NWS values.
T = Trace of Precipitation, MM = Missing Value Source: NWS Daily Summary

Daily Weather History Graph

Daily Weather History Graph

Search for Another Location

Airport or City:

Trip Planner

Search our weather history database for the weather conditions in past years. The results will help you decide how hot, cold, wet, or windy it might be!

Date:

Astronomy

Mar. 30, 2013 Rise Set
Actual Time 6:33 AM CDT 7:01 PM CDT
Civil Twilight 6:09 AM CDT 7:25 PM CDT
Nautical Twilight 5:40 AM CDT 7:54 PM CDT
Astronomical Twilight 5:11 AM CDT 8:23 PM CDT
Moon 10:51 PM CDT (3/30) 8:42 AM CDT (3/30)
Length of Visible Light 13h 16m
Length of Day
12h 27m
Waning Gibbous, 86% of the Moon is Illuminated
Mar 30
Waning Gibbous
Apr 2
Last Quarter
Apr 10
New
Apr 18
First Quarter
Apr 25
Full

Hourly Weather History & Observations

Time (CDT) Temp. Dew Point Humidity Pressure Visibility Wind Dir Wind Speed Gust Speed Precip Events Conditions
12:58 AM 50.2 °F 43.3 °F 77% 30.23 in 10.0 mi South 2.3 mph - N/A   Clear
1:58 AM 49.5 °F 44.1 °F 82% 30.22 in 10.0 mi Calm Calm - N/A   Clear
2:58 AM 47.3 °F 43.5 °F 87% 30.20 in 10.0 mi Calm Calm - N/A   Clear
3:58 AM 48.0 °F 45.5 °F 91% 30.20 in 10.0 mi Calm Calm - N/A   Clear
4:58 AM 46.8 °F 44.8 °F 93% 30.19 in 10.0 mi Calm Calm - N/A   Clear
5:58 AM 45.3 °F 43.0 °F 92% 30.21 in 10.0 mi Calm Calm - N/A   Clear
6:30 AM 46.4 °F 42.8 °F 87% 30.20 in 10.0 mi Calm Calm - N/A   Partly Cloudy
6:40 AM 46.4 °F 44.6 °F 93% 30.20 in 10.0 mi Calm Calm - N/A   Mostly Cloudy
6:58 AM 45.7 °F 43.5 °F 92% 30.21 in 9.0 mi Calm Calm - N/A   Mostly Cloudy
7:23 AM 48.2 °F 46.4 °F 93% 30.21 in 1.5 mi Calm Calm - N/A   Overcast
7:28 AM 48.2 °F 48.2 °F 100% 30.21 in 0.2 mi Calm Calm - N/A Fog Fog
7:33 AM 50.0 °F 48.2 °F 94% 30.21 in 0.2 mi Calm Calm - N/A Fog Fog
7:38 AM 50.0 °F 48.2 °F 94% 30.22 in 0.2 mi Calm Calm - N/A Fog Fog
7:58 AM 50.2 °F 49.5 °F 97% 30.23 in 0.2 mi Calm Calm - N/A Fog Fog
8:08 AM 50.0 °F 50.0 °F 100% 30.21 in 0.2 mi South 2.3 mph - N/A Fog Fog
8:28 AM 51.8 °F 50.0 °F 94% 30.22 in 0.5 mi Variable 1.2 mph - N/A Fog Fog
8:33 AM 51.8 °F 51.8 °F 100% 30.22 in 1.8 mi South 2.3 mph - N/A   Overcast
8:38 AM 51.8 °F 51.8 °F 100% 30.22 in 3.0 mi South 2.3 mph - N/A   Overcast
8:43 AM 53.6 °F 51.8 °F 94% 30.22 in 3.0 mi South 3.5 mph - N/A   Overcast
8:58 AM 55.0 °F 54.5 °F 98% 30.23 in 10.0 mi South 4.6 mph - N/A   Scattered Clouds
9:58 AM 64.6 °F 54.3 °F 69% 30.22 in 10.0 mi SW 8.1 mph - N/A   Clear
10:58 AM 68.5 °F 54.0 °F 60% 30.21 in 10.0 mi South 5.8 mph - N/A   Clear
11:58 AM 71.4 °F 52.7 °F 52% 30.19 in 10.0 mi Variable 5.8 mph - N/A   Clear
12:58 PM 72.9 °F 50.7 °F 46% 30.17 in 10.0 mi SSW 11.5 mph - N/A   Clear
1:58 PM 75.2 °F 50.5 °F 42% 30.14 in 10.0 mi South 11.5 mph 20.7 mph N/A   Partly Cloudy
2:58 PM 73.8 °F 50.2 °F 43% 30.12 in 10.0 mi South 15.0 mph 19.6 mph N/A   Overcast
3:58 PM 73.9 °F 52.0 °F 46% 30.11 in 10.0 mi SSW 13.8 mph - N/A   Mostly Cloudy
4:58 PM 72.7 °F 51.4 °F 47% 30.10 in 10.0 mi SSW 13.8 mph - N/A   Mostly Cloudy
4:59 PM 73.4 °F 51.8 °F 47% 30.09 in 10.0 mi SW 15.0 mph - N/A   Mostly Cloudy
5:58 PM 71.6 °F 49.6 °F 46% 30.10 in 10.0 mi SSW 13.8 mph 19.6 mph N/A   Clear
6:58 PM 68.4 °F 52.0 °F 56% 30.09 in 10.0 mi South 12.7 mph - N/A   Overcast
7:58 PM 66.4 °F 53.6 °F 63% 30.09 in 10.0 mi South 10.4 mph - N/A   Overcast
8:58 PM 65.3 °F 55.8 °F 71% 30.09 in 10.0 mi South 9.2 mph - N/A   Overcast
9:58 PM 62.6 °F 55.2 °F 77% 30.09 in 10.0 mi South 9.2 mph - N/A   Partly Cloudy
10:58 PM 60.1 °F 53.8 °F 80% 30.09 in 10.0 mi South 6.9 mph - N/A   Partly Cloudy
11:58 PM 59.2 °F 52.9 °F 80% 30.09 in 10.0 mi South 3.5 mph - N/A   Overcast